Simultaneous Nadir Overpasses (SNOs) Predictions

Prediction of SNOs between GOES-15 and METOP-C Satellite Orbit:

Table of predicted SNOs for the next 14.0 days since TLE Epoch: 6/3/2023
Index Date Time (GOES-15) GOES-15 Lat,Lon METOP-C Lat,Lon Distance(km) Time Diff (sec)
1 06/03/2023 07:48:07 0.27,-156.26 0.56,-154.91 154.49 80
2 06/04/2023 20:09:39 -0.25,-156.91 0.32,-159.49 293.39 80
3 06/05/2023 19:46:20 -0.27,-157.33 -0.92,-154.52 320.25 80
4 06/07/2023 08:08:01 0.26,-157.94 -0.01,-159.14 136.40 80
5 06/08/2023 07:44:43 0.28,-158.35 1.23,-154.17 476.61 80
6 06/09/2023 20:03:33 -0.27,-158.98 -0.31,-158.74 27.45 80
7 06/11/2023 08:25:15 0.25,-159.60 -0.62,-163.36 429.28 80
8 06/12/2023 08:01:56 0.27,-160.00 0.63,-158.39 183.52 80
9 06/13/2023 20:23:26 -0.24,-160.63 0.29,-162.96 266.21 80
10 06/14/2023 20:00:08 -0.26,-161.03 -0.96,-157.99 346.34 80
11 06/16/2023 08:21:48 0.24,-161.63 -0.00,-162.60 111.33 80
